| time (UTC) | temp C | wind direction | speed KPH | gust KPH | rain 1hr cm | rain 24hr cm | rain mn cm | humidity % | barometer mb |
| 20260503214603 | 15 | 219 | 4.8 | 11.3 | 0.00 | 0.00 | 0.00 | 83 | 1035.2 |
| 20260503213053 | 14 | 213 | 6.4 | 11.3 | 0.00 | 0.00 | 0.00 | 84 | 1035.3 |
| 20260503211550 | 14 | 196 | 6.4 | 9.7 | 0.00 | 0.00 | 0.00 | 85 | 1035.3 |
| 20260503210045 | 14 | 211 | 4.8 | 9.7 | 0.00 | 0.00 | 0.00 | 86 | 1035.4 |
| 20260503204545 | 13 | 180 | 6.4 | 11.3 | 0.00 | 0.00 | 0.00 | 88 | 1035.3 |
| 20260503203759 | 13 | 192 | 1.6 | 9.7 | 0.00 | 0.00 | 0.00 | 91 | 1035.3 |
| 20260503201541 | 13 | 175 | 6.4 | 12.9 | 0.00 | 0.00 | 0.00 | 92 | 1035.0 |
| 20260503200037 | 13 | 176 | 3.2 | 9.7 | 0.00 | 0.00 | 0.00 | 92 | 1035.0 |
| 20260503195230 | 12 | 230 | 4.8 | 12.9 | 0.00 | 0.00 | 0.00 | 92 | 1034.9 |
| 20260503193033 | 12 | 205 | 6.4 | 9.7 | 0.00 | 0.00 | 0.00 | 93 | 1034.8 |
| 20260503191528 | 12 | 223 | 4.8 | 12.9 | 0.00 | 0.00 | 0.00 | 93 | 1034.7 |
| 20260503190031 | 11 | 222 | 8.0 | 9.7 | 0.00 | 0.00 | 0.00 | 93 | 1034.7 |
| 20260503185215 | 11 | 222 | 3.2 | 9.7 | 0.00 | 0.00 | 0.00 | 93 | 1034.6 |
| 20260503183020 | 11 | 240 | 3.2 | 8.0 | 0.00 | 0.00 | 0.00 | 93 | 1034.3 |
| 20260503181517 | 11 | 229 | 6.4 | 8.0 | 0.00 | 0.00 | 0.00 | 93 | 1034.2 |
| 20260503180011 | 10 | 223 | 4.8 | 6.4 | 0.00 | 0.00 | 0.00 | 93 | 1034.0 |
| 20260503174507 | 10 | 245 | 3.2 | 4.8 | 0.00 | 0.00 | 0.00 | 93 | 1033.9 |
| 20260503173659 | 10 | 246 | 3.2 | 4.8 | 0.00 | 0.00 | 0.00 | 93 | 1033.8 |
| 20260503172149 | 10 | 249 | 3.2 | 4.8 | 0.00 | 0.00 | 0.00 | 93 | 1033.8 |
| 20260503131403 | 12 | 120 | 3.2 | 6.4 | 0.00 | 0.00 | 0.00 | 92 | 1035.3 |
| 20260503081136 | 13 | 275 | 1.6 | 4.8 | 0.00 | 0.00 | 0.00 | 85 | 1033.7 |
| 20260503071252 | 13 | 268 | 3.2 | 6.4 | 0.00 | 0.00 | 0.00 | 83 | 1033.6 |
| 20260503070442 | 13 | 264 | 4.8 | 6.4 | 0.00 | 0.00 | 0.00 | 82 | 1033.6 |
| 20260503054230 | 15 | 317 | 6.4 | 8.0 | 0.00 | 0.00 | 0.00 | 79 | 1033.3 |
| 20260503052725 | 15 | 325 | 6.4 | 14.5 | 0.00 | 0.00 | 0.00 | 78 | 1033.3 |
| 20260503051221 | 16 | 334 | 8.0 | 12.9 | 0.00 | 0.00 | 0.00 | 76 | 1033.1 |
| 20260503045717 | 16 | 345 | 4.8 | 12.9 | 0.00 | 0.00 | 0.00 | 74 | 1033.1 |
| 20260503044213 | 17 | 14 | 4.8 | 12.9 | 0.00 | 0.00 | 0.00 | 73 | 1033.1 |
| 20260503042713 | 17 | 10 | 4.8 | 12.9 | 0.00 | 0.00 | 0.00 | 73 | 1033.2 |
| 20260503041209 | 17 | 29 | 6.4 | 9.7 | 0.00 | 0.00 | 0.00 | 72 | 1033.2 |
| 20260503035710 | 17 | 0 | 8.0 | 14.5 | 0.00 | 0.00 | 0.00 | 73 | 1033.2 |
| 20260503034900 | 17 | 15 | 8.0 | 12.9 | 0.00 | 0.00 | 0.00 | 71 | 1033.0 |
| 20260503033401 | 17 | 21 | 8.0 | 12.9 | 0.00 | 0.00 | 0.00 | 70 | 1033.2 |
| 20260503031857 | 18 | 49 | 6.4 | 12.9 | 0.00 | 0.00 | 0.00 | 69 | 1033.3 |
| 20260503025703 | 18 | 33 | 6.4 | 11.3 | 0.00 | 0.00 | 0.00 | 68 | 1033.3 |
| 20260503024157 | 18 | 44 | 4.8 | 9.7 | 0.00 | 0.00 | 0.00 | 70 | 1033.3 |
| 20260503022653 | 18 | 43 | 6.4 | 12.9 | 0.00 | 0.00 | 0.00 | 68 | 1033.3 |
| 20260503021148 | 18 | 24 | 6.4 | 12.9 | 0.00 | 0.00 | 0.00 | 68 | 1033.4 |
| 20260503015644 | 18 | 343 | 6.4 | 14.5 | 0.00 | 0.00 | 0.00 | 69 | 1033.4 |
| 20260503014146 | 18 | 344 | 9.7 | 17.7 | 0.00 | 0.00 | 0.00 | 69 | 1033.5 |
| 20260503012639 | 18 | 79 | 4.8 | 9.7 | 0.00 | 0.00 | 0.00 | 68 | 1033.6 |
| 20260503011141 | 18 | 88 | 4.8 | 14.5 | 0.00 | 0.00 | 0.00 | 68 | 1033.8 |
| 20260503005636 | 18 | 44 | 8.0 | 14.5 | 0.00 | 0.00 | 0.00 | 67 | 1034.0 |
| 20260503004132 | 18 | 34 | 6.4 | 11.3 | 0.00 | 0.00 | 0.00 | 69 | 1034.2 |
| 20260503002634 | 18 | 55 | 6.4 | 14.5 | 0.00 | 0.00 | 0.00 | 69 | 1034.4 |
| 20260503001847 | 18 | 50 | 4.8 | 8.0 | 0.00 | 0.00 | 0.00 | 66 | 1034.6 |
| 20260502235629 | 18 | 107 | 4.8 | 9.7 | 0.00 | 0.00 | 0.00 | 66 | 1034.8 |
| 20260502234124 | 18 | 86 | 3.2 | 8.0 | 0.00 | 0.00 | 0.00 | 64 | 1035.0 |
| 20260502233328 | 18 | 40 | 4.8 | 6.4 | 0.00 | 0.00 | 0.00 | 65 | 1035.1 |
| 20260502231811 | 18 | 144 | 1.6 | 8.0 | 0.00 | 0.00 | 0.00 | 65 | 1035.3 |
| 20260502225616 | 17 | 167 | 3.2 | 11.3 | 0.00 | 0.00 | 0.00 | 68 | 1035.4 |
| 20260502224117 | 17 | 203 | 3.2 | 11.3 | 0.00 | 0.00 | 0.00 | 72 | 1035.4 |
| 20260502223307 | 16 | 187 | 6.4 | 12.9 | 0.00 | 0.00 | 0.00 | 73 | 1035.4 |
| 20260502221107 | 16 | 167 | 6.4 | 12.9 | 0.00 | 0.00 | 0.00 | 77 | 1035.5 |
| 20260502215603 | 16 | 178 | 4.8 | 9.7 | 0.00 | 0.00 | 0.00 | 80 | 1035.3 |